Tracking 35237 objects as of 6-Sep-2026
HD Live streaming from Space Station
objects crossing your sky now

ATLAS 5 CENTAUR DEB

Track ATLAS 5 CENTAUR DEB now!


NORAD ID: 52038
Int'l Code: 2018-079GG
Launch date: October 17, 2018
Source: United States (US)
Launch site: AIR FORCE EASTERN TEST RANGE (AFETR)

Note: This is SATELLITE DEBRIS
Your satellite tracking list
Your tracking list is empty




NASA's NSSDC Master Catalog

Two Line Element Set (TLE):
1 52038U 18079GG  22101.84236851 -.00000044  00000-0  00000+0 0  9994
2 52038  12.0907 100.1104 5073275 221.3777  86.4511  2.30085623  1010
Source of the keplerian elements: AFSPC